GFSCGP_prec_precacc_060.txt.gz
Total_Precipitation_Accumulation
0.00 0.00 0.00 0.01 0.00 0.00 0.00 0.00 0.00 0.00 0.00 0.00 0.00 0.00 0.00 0.00 0.00 0.00 0.00 0.00 0.00 0.00 0.00 0.00 0.00 0.00 0.00 0.00 0.00 0.00 0.00 0.00 0.00 0.00 0.00 0.00 0.00 0.00 0.00 0.00 0.00 0.00 0.00 0.00
0.00 0.00 0.00 0.00 0.00 0.00 0.00 0.00 0.00 0.00 0.00 0.00 0.00 0.00 0.00 0.00 0.00 0.00 0.00 0.00 0.00 0.00 0.00 0.00 0.00 0.00 0.00 0.00 0.00 0.00 0.00 0.00 0.00 0.00 0.00 0.00 0.00 0.00 0.00 0.00 0.00 0.00 0.00 0.00
0.00 0.00 0.00 0.00 0.00 0.00 0.00 0.00 0.00 0.00 0.00 0.00 0.00 0.00 0.00 0.00 0.00 0.00 0.00 0.00 0.00 0.00 0.00 0.00 0.00 0.00 0.00 0.00 0.00 0.00 0.00 0.00 0.00 0.00 0.00 0.00 0.00 0.00 0.00 0.00 0.00 0.00 0.00 0.00
0.00 0.00 0.00 0.00 0.00 0.00 0.00 0.00 0.00 0.00 0.00 0.00 0.00 0.00 0.00 0.00 0.00 0.00 0.00 0.00 0.00 0.00 0.00 0.00 0.00 0.00 0.00 0.00 0.00 0.00 0.00 0.00 0.00 0.00 0.00 0.00 0.00 0.00 0.00 0.00 0.00 0.00 0.00 0.00
0.00 0.00 0.00 0.00 0.00 0.00 0.00 0.00 0.00 0.00 0.00 0.00 0.00 0.00 0.00 0.00 0.00 0.00 0.00 0.00 0.00 0.00 0.00 0.00 0.00 0.00 0.00 0.00 0.00 0.00 0.00 0.00 0.00 0.00 0.00 0.00 0.00 0.00 0.00 0.00 0.00 0.00 0.00 0.00
0.00 0.00 0.00 0.00 0.00 0.00 0.00 0.00 0.00 0.00 0.00 0.00 0.00 0.00 0.00 0.00 0.00 0.00 0.00 0.00 0.00 0.00 0.00 0.00 0.00 0.00 0.00 0.00 0.00 0.00 0.00 0.00 0.00 0.00 0.00 0.00 0.00 0.00 0.00 0.00 0.00 0.00 0.00 0.00
0.00 0.00 0.00 0.00 0.00 0.00 0.00 0.00 0.00 0.00 0.00 0.00 0.00 0.00 0.00 0.00 0.00 0.00 0.00 0.00 0.00 0.00 0.00 0.00 0.00 0.00 0.00 0.00 0.00 0.00 0.00 0.00 0.00 0.00 0.00 0.00 0.00 0.00 0.00 0.00 0.00 0.00 0.00 0.00
0.00 0.00 0.00 0.00 0.00 0.00 0.00 0.00 0.00 0.00 0.00 0.00 0.00 0.00 0.00 0.00 0.00 0.00 0.00 0.00 0.00 0.00 0.00 0.00 0.00 0.00 0.00 0.00 0.00 0.00 0.00 0.00 0.00 0.00 0.00 0.00 0.00 0.00 0.00 0.00 0.00 0.00 0.00 0.00
0.00 0.00 0.00 0.00 0.00 0.00 0.00 0.00 0.00 0.00 0.00 0.00 0.00 0.00 0.00 0.00 0.00 0.00 0.00 0.00 0.00 0.00 0.00 0.00 0.00 0.00 0.00 0.00 0.00 0.00 0.00 0.00 0.00 0.00 0.00 0.00 0.00 0.00 0.00 0.00 0.00 0.00 0.00 0.00
0.00 0.00 0.00 0.00 0.00 0.00 0.00 0.00 0.00 0.00 0.00 0.00 0.00 0.00 0.00 0.00 0.00 0.00 0.00 0.00 0.00 0.00 0.00 0.00 0.00 0.00 0.00 0.00 0.00 0.00 0.00 0.00 0.00 0.00 0.00 0.00 0.00 0.00 0.00 0.00 0.00 0.00 0.00 0.00
0.00 0.00 0.00 0.00 0.00 0.00 0.00 0.00 0.00 0.00 0.00 0.05 0.07 0.01 0.00 0.00 0.00 0.00 0.00 0.00 0.00 0.00 0.00 0.00 0.00 0.00 0.00 0.00 0.00 0.00 0.00 0.00 0.00 0.00 0.00 0.00 0.00 0.00 0.00 0.00 0.00 0.00 0.00 0.00
0.01 0.02 0.01 0.00 0.00 0.00 0.00 0.01 0.02 0.12 0.14 0.08 0.16 0.14 0.00 0.00 0.00 0.00 0.00 0.00 0.00 0.00 0.00 0.00 0.00 0.00 0.00 0.00 0.00 0.00 0.00 0.00 0.00 0.00 0.00 0.00 0.00 0.00 0.00 0.00 0.00 0.00 0.00 0.00
0.08 0.08 0.08 0.02 0.00 0.00 0.00 0.00 0.03 0.17 0.33 0.24 0.16 0.08 0.00 0.00 0.00 0.00 0.00 0.00 0.00 0.00 0.00 0.00 0.00 0.00 0.00 0.00 0.00 0.00 0.00 0.00 0.00 0.00 0.00 0.00 0.00 0.00 0.00 0.00 0.00 0.00 0.00 0.00
0.08 0.12 0.15 0.21 0.16 0.11 0.07 0.02 0.01 0.09 0.27 0.15 0.09 0.04 0.00 0.00 0.00 0.00 0.00 0.00 0.00 0.00 0.00 0.00 0.00 0.00 0.00 0.00 0.00 0.00 0.00 0.00 0.00 0.00 0.00 0.00 0.01 0.00 0.00 0.00 0.00 0.00 0.00 0.00
0.05 0.12 0.09 0.10 0.05 0.03 0.04 0.04 0.02 0.04 0.09 0.13 0.09 0.02 0.00 0.00 0.00 0.00 0.00 0.00 0.00 0.00 0.00 0.00 0.00 0.00 0.00 0.00 0.00 0.00 0.00 0.00 0.00 0.00 0.00 0.02 0.02 0.01 0.02 0.01 0.00 0.00 0.00 0.01
0.07 0.23 0.16 0.13 0.06 0.05 0.06 0.06 0.04 0.03 0.02 0.03 0.06 0.06 0.03 0.02 0.00 0.00 0.00 0.00 0.00 0.00 0.00 0.00 0.00 0.00 0.00 0.00 0.00 0.00 0.00 0.00 0.00 0.00 0.00 0.02 0.02 0.03 0.03 0.03 0.02 0.01 0.01 0.01
0.04 0.19 0.28 0.29 0.10 0.10 0.12 0.04 0.02 0.02 0.03 0.05 0.10 0.15 0.10 0.07 0.02 0.00 0.00 0.00 0.00 0.00 0.00 0.00 0.00 0.00 0.00 0.00 0.00 0.00 0.00 0.00 0.00 0.00 0.01 0.02 0.02 0.03 0.05 0.04 0.03 0.04 0.04 0.04
0.00 0.02 0.20 0.36 0.21 0.29 0.10 0.00 0.01 0.04 0.03 0.10 0.25 0.37 0.25 0.11 0.02 0.00 0.00 0.00 0.00 0.01 0.01 0.00 0.00 0.00 0.00 0.00 0.00 0.00 0.00 0.00 0.00 0.00 0.00 0.00 0.01 0.01 0.03 0.04 0.04 0.06 0.09 0.13
0.01 0.07 0.22 0.33 0.29 0.22 0.06 0.01 0.04 0.10 0.12 0.17 0.27 0.16 0.06 0.04 0.02 0.00 0.00 0.00 0.00 0.00 0.00 0.00 0.00 0.00 0.00 0.00 0.00 0.00 0.00 0.00 0.00 0.00 0.00 0.01 0.01 0.01 0.02 0.06 0.08 0.10 0.14 0.14
0.02 0.05 0.18 0.20 0.45 0.38 0.11 0.02 0.03 0.14 0.20 0.18 0.17 0.17 0.13 0.10 0.10 0.01 0.00 0.00 0.00 0.00 0.00 0.01 0.00 0.00 0.00 0.00 0.00 0.00 0.00 0.00 0.01 0.01 0.01 0.02 0.03 0.04 0.07 0.08 0.10 0.11 0.12 0.12
0.01 0.07 0.12 0.11 0.32 0.22 0.10 0.06 0.08 0.25 0.34 0.16 0.18 0.20 0.18 0.19 0.15 0.04 0.00 0.00 0.00 0.00 0.00 0.00 0.00 0.00 0.00 0.00 0.00 0.01 0.01 0.01 0.01 0.02 0.04 0.05 0.05 0.08 0.09 0.08 0.07 0.12 0.14 0.13
0.09 0.13 0.05 0.08 0.19 0.07 0.08 0.16 0.21 0.36 0.36 0.22 0.18 0.13 0.16 0.16 0.13 0.06 0.02 0.00 0.00 0.00 0.00 0.00 0.00 0.00 0.00 0.00 0.01 0.02 0.02 0.01 0.03 0.05 0.05 0.05 0.05 0.06 0.08 0.10 0.06 0.06 0.13 0.17
0.00 0.03 0.06 0.15 0.13 0.01 0.01 0.05 0.13 0.25 0.25 0.15 0.16 0.17 0.17 0.13 0.13 0.12 0.07 0.03 0.01 0.00 0.00 0.01 0.01 0.00 0.00 0.01 0.01 0.05 0.04 0.04 0.05 0.06 0.05 0.05 0.04 0.04 0.04 0.06 0.14 0.13 0.11 0.19
0.00 0.01 0.06 0.14 0.02 0.00 0.00 0.00 0.04 0.08 0.13 0.10 0.10 0.16 0.30 0.21 0.11 0.13 0.10 0.05 0.04 0.02 0.01 0.04 0.04 0.03 0.02 0.02 0.02 0.04 0.05 0.07 0.09 0.07 0.06 0.05 0.04 0.08 0.03 0.06 0.14 0.19 0.15 0.30
0.01 0.01 0.03 0.09 0.01 0.05 0.01 0.03 0.03 0.01 0.00 0.01 0.07 0.21 0.36 0.30 0.16 0.11 0.13 0.09 0.06 0.05 0.05 0.08 0.11 0.14 0.10 0.05 0.06 0.04 0.08 0.11 0.11 0.07 0.07 0.06 0.03 0.05 0.03 0.05 0.31 0.39 0.22 0.55
0.00 0.01 0.12 0.19 0.03 0.16 0.06 0.00 0.00 0.00 0.01 0.01 0.04 0.10 0.18 0.22 0.18 0.14 0.19 0.14 0.08 0.09 0.13 0.16 0.19 0.24 0.21 0.16 0.10 0.08 0.09 0.09 0.13 0.11 0.09 0.16 0.11 0.07 0.10 0.13 0.16 0.36 0.49 0.53

GFSCGP_prec_precacc_063.txt.gz
Total_Precipitation_Accumulation
0.00 0.00 0.01 0.03 0.01 0.00 0.00 0.00 0.00 0.00 0.00 0.00 0.00 0.00 0.00 0.00 0.00 0.00 0.00 0.00 0.00 0.00 0.00 0.00 0.00 0.00 0.00 0.00 0.00 0.00 0.00 0.00 0.00 0.00 0.00 0.00 0.00 0.00 0.00 0.00 0.00 0.00 0.00 0.00
0.00 0.00 0.00 0.00 0.00 0.00 0.00 0.00 0.00 0.00 0.00 0.00 0.00 0.00 0.00 0.00 0.00 0.00 0.00 0.00 0.00 0.00 0.00 0.00 0.00 0.00 0.00 0.00 0.00 0.00 0.00 0.00 0.00 0.00 0.00 0.00 0.00 0.00 0.00 0.00 0.00 0.00 0.00 0.00
0.00 0.00 0.00 0.00 0.00 0.00 0.00 0.00 0.00 0.00 0.00 0.00 0.00 0.00 0.00 0.00 0.00 0.00 0.00 0.00 0.00 0.00 0.00 0.00 0.00 0.00 0.00 0.00 0.00 0.00 0.00 0.00 0.00 0.00 0.00 0.00 0.00 0.00 0.00 0.00 0.00 0.00 0.00 0.00
0.00 0.00 0.00 0.00 0.00 0.00 0.00 0.00 0.00 0.00 0.00 0.00 0.00 0.00 0.00 0.00 0.00 0.00 0.00 0.00 0.00 0.00 0.00 0.00 0.00 0.00 0.00 0.00 0.00 0.00 0.00 0.00 0.00 0.00 0.00 0.00 0.00 0.00 0.00 0.00 0.00 0.00 0.00 0.00
0.00 0.00 0.00 0.00 0.00 0.00 0.00 0.00 0.00 0.00 0.00 0.00 0.00 0.00 0.00 0.00 0.00 0.00 0.00 0.00 0.00 0.00 0.00 0.00 0.00 0.00 0.00 0.00 0.00 0.00 0.00 0.00 0.00 0.00 0.00 0.00 0.00 0.00 0.00 0.00 0.00 0.00 0.00 0.00
0.00 0.00 0.00 0.00 0.00 0.00 0.00 0.00 0.00 0.00 0.00 0.00 0.00 0.00 0.00 0.00 0.00 0.00 0.00 0.00 0.00 0.00 0.00 0.00 0.00 0.00 0.00 0.00 0.00 0.00 0.00 0.00 0.00 0.00 0.00 0.00 0.00 0.00 0.00 0.00 0.00 0.00 0.00 0.00
0.00 0.00 0.00 0.00 0.00 0.00 0.00 0.00 0.00 0.00 0.00 0.00 0.00 0.00 0.00 0.00 0.00 0.00 0.00 0.00 0.00 0.00 0.00 0.00 0.00 0.00 0.00 0.00 0.00 0.00 0.00 0.00 0.00 0.00 0.00 0.00 0.00 0.00 0.00 0.00 0.00 0.00 0.00 0.00
0.00 0.00 0.00 0.00 0.00 0.00 0.00 0.00 0.00 0.00 0.00 0.00 0.00 0.00 0.00 0.00 0.00 0.00 0.00 0.00 0.00 0.00 0.00 0.00 0.00 0.00 0.00 0.00 0.00 0.00 0.00 0.00 0.00 0.00 0.00 0.00 0.00 0.00 0.00 0.00 0.00 0.00 0.00 0.00
0.00 0.00 0.00 0.00 0.00 0.00 0.00 0.00 0.00 0.00 0.00 0.00 0.00 0.00 0.00 0.00 0.00 0.00 0.00 0.00 0.00 0.00 0.00 0.00 0.00 0.00 0.00 0.00 0.00 0.00 0.00 0.00 0.00 0.00 0.00 0.00 0.00 0.00 0.00 0.00 0.00 0.00 0.00 0.00
0.00 0.00 0.00 0.00 0.00 0.00 0.00 0.00 0.00 0.00 0.00 0.00 0.00 0.00 0.00 0.00 0.00 0.00 0.00 0.00 0.00 0.00 0.00 0.00 0.00 0.00 0.00 0.00 0.00 0.00 0.00 0.00 0.00 0.00 0.00 0.00 0.00 0.00 0.00 0.00 0.00 0.00 0.00 0.00
0.00 0.00 0.00 0.00 0.00 0.00 0.00 0.00 0.00 0.00 0.00 0.05 0.07 0.01 0.00 0.00 0.00 0.00 0.00 0.00 0.00 0.00 0.00 0.00 0.00 0.00 0.00 0.00 0.00 0.00 0.00 0.00 0.00 0.00 0.00 0.00 0.00 0.00 0.00 0.00 0.00 0.00 0.00 0.00
0.01 0.02 0.01 0.00 0.00 0.00 0.00 0.01 0.02 0.12 0.14 0.08 0.16 0.14 0.00 0.00 0.00 0.00 0.00 0.00 0.00 0.00 0.00 0.00 0.00 0.00 0.00 0.00 0.00 0.00 0.00 0.00 0.00 0.00 0.00 0.00 0.00 0.00 0.00 0.00 0.00 0.00 0.00 0.00
0.08 0.08 0.08 0.02 0.00 0.00 0.00 0.00 0.03 0.17 0.33 0.24 0.16 0.08 0.00 0.00 0.00 0.00 0.00 0.00 0.00 0.00 0.00 0.00 0.00 0.00 0.00 0.00 0.00 0.00 0.00 0.00 0.00 0.00 0.00 0.00 0.00 0.00 0.00 0.00 0.00 0.00 0.00 0.00
0.08 0.12 0.15 0.21 0.16 0.11 0.07 0.02 0.01 0.09 0.27 0.15 0.09 0.04 0.00 0.00 0.00 0.00 0.00 0.00 0.00 0.00 0.00 0.00 0.00 0.00 0.00 0.00 0.00 0.00 0.00 0.00 0.00 0.00 0.00 0.00 0.01 0.00 0.00 0.00 0.00 0.00 0.00 0.00
0.05 0.12 0.09 0.10 0.05 0.03 0.04 0.04 0.02 0.04 0.09 0.13 0.09 0.02 0.00 0.00 0.00 0.00 0.00 0.00 0.00 0.00 0.00 0.00 0.00 0.00 0.00 0.00 0.00 0.00 0.00 0.00 0.00 0.00 0.00 0.02 0.02 0.01 0.02 0.01 0.00 0.00 0.00 0.01
0.07 0.23 0.16 0.13 0.06 0.05 0.06 0.06 0.04 0.03 0.02 0.03 0.06 0.06 0.03 0.02 0.00 0.00 0.00 0.00 0.00 0.00 0.00 0.00 0.00 0.00 0.00 0.00 0.00 0.00 0.00 0.00 0.00 0.00 0.00 0.02 0.02 0.03 0.03 0.03 0.02 0.01 0.01 0.01
0.04 0.19 0.28 0.29 0.10 0.10 0.12 0.04 0.02 0.02 0.03 0.05 0.10 0.15 0.10 0.07 0.02 0.00 0.00 0.00 0.00 0.00 0.00 0.00 0.00 0.00 0.00 0.00 0.00 0.00 0.00 0.00 0.00 0.00 0.01 0.02 0.02 0.03 0.05 0.04 0.03 0.04 0.04 0.04
0.00 0.02 0.20 0.36 0.21 0.29 0.10 0.00 0.01 0.04 0.03 0.10 0.25 0.37 0.25 0.11 0.02 0.00 0.00 0.00 0.00 0.01 0.01 0.00 0.00 0.00 0.00 0.00 0.00 0.00 0.00 0.00 0.00 0.00 0.00 0.00 0.01 0.01 0.03 0.04 0.04 0.06 0.09 0.13
0.01 0.07 0.22 0.33 0.29 0.22 0.06 0.01 0.04 0.10 0.12 0.17 0.27 0.16 0.06 0.04 0.02 0.00 0.00 0.00 0.00 0.00 0.00 0.00 0.00 0.00 0.00 0.00 0.00 0.00 0.00 0.00 0.00 0.00 0.00 0.01 0.01 0.01 0.02 0.06 0.08 0.10 0.14 0.14
0.02 0.05 0.18 0.20 0.45 0.38 0.11 0.02 0.03 0.14 0.20 0.18 0.17 0.17 0.13 0.10 0.10 0.01 0.00 0.00 0.00 0.00 0.00 0.01 0.00 0.00 0.00 0.00 0.00 0.00 0.00 0.00 0.01 0.01 0.01 0.02 0.03 0.04 0.07 0.08 0.10 0.11 0.12 0.12
0.01 0.07 0.12 0.11 0.32 0.22 0.10 0.06 0.08 0.25 0.34 0.16 0.18 0.20 0.18 0.19 0.15 0.04 0.00 0.00 0.00 0.00 0.00 0.00 0.00 0.00 0.00 0.00 0.00 0.01 0.01 0.01 0.01 0.02 0.04 0.05 0.05 0.08 0.09 0.08 0.07 0.12 0.14 0.13
0.09 0.13 0.05 0.08 0.19 0.07 0.08 0.16 0.21 0.36 0.36 0.22 0.18 0.13 0.16 0.16 0.13 0.06 0.02 0.00 0.00 0.00 0.00 0.00 0.00 0.00 0.00 0.00 0.01 0.02 0.02 0.01 0.03 0.05 0.05 0.05 0.05 0.06 0.08 0.10 0.06 0.06 0.14 0.17
0.00 0.03 0.06 0.15 0.13 0.01 0.01 0.05 0.13 0.25 0.25 0.15 0.16 0.17 0.17 0.13 0.13 0.12 0.07 0.03 0.01 0.00 0.00 0.01 0.01 0.00 0.00 0.01 0.01 0.05 0.04 0.04 0.05 0.06 0.05 0.05 0.04 0.04 0.04 0.06 0.14 0.13 0.12 0.19
0.00 0.01 0.06 0.14 0.02 0.00 0.00 0.00 0.04 0.08 0.13 0.10 0.10 0.16 0.30 0.21 0.11 0.13 0.10 0.05 0.04 0.02 0.01 0.04 0.04 0.03 0.02 0.02 0.02 0.04 0.05 0.07 0.09 0.07 0.06 0.05 0.04 0.08 0.03 0.06 0.14 0.21 0.16 0.32
0.01 0.01 0.03 0.09 0.01 0.05 0.01 0.03 0.03 0.01 0.00 0.01 0.07 0.21 0.36 0.30 0.16 0.11 0.13 0.09 0.06 0.05 0.05 0.08 0.11 0.14 0.10 0.05 0.06 0.04 0.08 0.11 0.11 0.07 0.07 0.06 0.03 0.05 0.03 0.05 0.34 0.46 0.26 0.62
0.00 0.01 0.12 0.19 0.03 0.16 0.06 0.00 0.00 0.00 0.01 0.01 0.04 0.10 0.18 0.22 0.18 0.14 0.19 0.14 0.08 0.09 0.13 0.16 0.19 0.24 0.21 0.16 0.10 0.08 0.09 0.09 0.13 0.11 0.09 0.16 0.11 0.07 0.10 0.14 0.16 0.40 0.57 0.59

GFSCGP_prec_precacc_069.txt.gz
Total_Precipitation_Accumulation
0.00 0.00 0.02 0.04 0.02 0.02 0.01 0.01 0.01 0.00 0.00 0.00 0.00 0.00 0.00 0.00 0.00 0.00 0.00 0.00 0.00 0.00 0.00 0.00 0.00 0.00 0.00 0.00 0.00 0.00 0.00 0.00 0.00 0.00 0.00 0.00 0.00 0.00 0.00 0.00 0.00 0.00 0.00 0.00
0.01 0.00 0.01 0.01 0.00 0.01 0.01 0.01 0.01 0.00 0.00 0.00 0.00 0.00 0.00 0.00 0.00 0.00 0.00 0.00 0.00 0.00 0.00 0.00 0.00 0.00 0.00 0.00 0.00 0.00 0.00 0.00 0.00 0.00 0.00 0.00 0.00 0.00 0.00 0.00 0.00 0.00 0.00 0.00
0.01 0.02 0.01 0.01 0.01 0.01 0.01 0.01 0.00 0.00 0.00 0.00 0.00 0.00 0.00 0.00 0.00 0.00 0.00 0.00 0.00 0.00 0.00 0.00 0.00 0.00 0.00 0.00 0.00 0.00 0.00 0.00 0.00 0.00 0.00 0.00 0.00 0.00 0.00 0.00 0.00 0.00 0.00 0.00
0.00 0.00 0.01 0.00 0.01 0.02 0.00 0.00 0.01 0.00 0.00 0.00 0.00 0.00 0.00 0.00 0.00 0.00 0.00 0.00 0.00 0.00 0.00 0.00 0.00 0.00 0.00 0.00 0.00 0.00 0.00 0.00 0.00 0.00 0.00 0.00 0.00 0.00 0.00 0.00 0.00 0.00 0.00 0.00
0.00 0.00 0.00 0.01 0.00 0.00 0.00 0.00 0.00 0.00 0.00 0.00 0.00 0.00 0.00 0.00 0.00 0.00 0.00 0.00 0.00 0.00 0.00 0.00 0.00 0.00 0.00 0.00 0.00 0.00 0.00 0.00 0.00 0.00 0.00 0.00 0.00 0.00 0.00 0.00 0.00 0.00 0.00 0.00
0.00 0.00 0.00 0.00 0.00 0.00 0.00 0.00 0.00 0.00 0.00 0.00 0.00 0.00 0.00 0.00 0.00 0.00 0.00 0.00 0.00 0.00 0.00 0.00 0.00 0.00 0.00 0.00 0.00 0.00 0.00 0.00 0.00 0.00 0.00 0.00 0.00 0.00 0.00 0.00 0.00 0.00 0.00 0.00
0.00 0.00 0.00 0.00 0.00 0.00 0.00 0.00 0.00 0.00 0.00 0.00 0.00 0.00 0.00 0.00 0.00 0.00 0.00 0.00 0.00 0.00 0.00 0.00 0.00 0.00 0.00 0.00 0.00 0.00 0.00 0.00 0.00 0.00 0.00 0.00 0.00 0.00 0.00 0.00 0.00 0.00 0.00 0.00
0.00 0.00 0.00 0.00 0.00 0.00 0.00 0.00 0.00 0.00 0.00 0.00 0.00 0.00 0.00 0.00 0.00 0.00 0.00 0.00 0.00 0.00 0.00 0.00 0.00 0.00 0.00 0.00 0.00 0.00 0.00 0.00 0.00 0.00 0.00 0.00 0.00 0.00 0.00 0.00 0.00 0.00 0.00 0.00
0.00 0.00 0.00 0.00 0.00 0.00 0.00 0.00 0.00 0.00 0.00 0.00 0.00 0.00 0.00 0.00 0.00 0.00 0.00 0.00 0.00 0.00 0.00 0.00 0.00 0.00 0.00 0.00 0.00 0.00 0.00 0.00 0.00 0.00 0.00 0.00 0.00 0.00 0.00 0.00 0.00 0.00 0.00 0.00
0.00 0.00 0.00 0.00 0.00 0.00 0.00 0.00 0.00 0.00 0.00 0.00 0.00 0.00 0.00 0.00 0.00 0.00 0.00 0.00 0.00 0.00 0.00 0.00 0.00 0.00 0.00 0.00 0.00 0.00 0.00 0.00 0.00 0.00 0.00 0.00 0.00 0.00 0.00 0.00 0.00 0.00 0.00 0.00
0.00 0.00 0.00 0.00 0.00 0.00 0.00 0.00 0.00 0.00 0.00 0.05 0.07 0.01 0.00 0.00 0.00 0.00 0.00 0.00 0.00 0.00 0.00 0.00 0.00 0.00 0.00 0.00 0.00 0.00 0.00 0.00 0.00 0.00 0.00 0.00 0.00 0.00 0.00 0.00 0.00 0.00 0.00 0.00
0.01 0.02 0.01 0.00 0.00 0.00 0.00 0.01 0.02 0.12 0.14 0.08 0.16 0.14 0.00 0.00 0.00 0.00 0.00 0.00 0.00 0.00 0.00 0.00 0.00 0.00 0.00 0.00 0.00 0.00 0.00 0.00 0.00 0.00 0.00 0.00 0.00 0.00 0.00 0.00 0.00 0.00 0.00 0.00
0.08 0.08 0.08 0.02 0.00 0.00 0.00 0.00 0.03 0.17 0.33 0.24 0.16 0.08 0.00 0.00 0.00 0.00 0.00 0.00 0.00 0.00 0.00 0.00 0.00 0.00 0.00 0.00 0.00 0.00 0.00 0.00 0.00 0.00 0.00 0.00 0.00 0.00 0.00 0.00 0.00 0.00 0.00 0.00
0.08 0.12 0.15 0.21 0.16 0.11 0.07 0.02 0.01 0.09 0.27 0.15 0.09 0.04 0.00 0.00 0.00 0.00 0.00 0.00 0.00 0.00 0.00 0.00 0.00 0.00 0.00 0.00 0.00 0.00 0.00 0.00 0.00 0.00 0.00 0.00 0.01 0.00 0.00 0.00 0.00 0.00 0.00 0.00
0.05 0.12 0.09 0.10 0.05 0.03 0.04 0.04 0.02 0.04 0.09 0.13 0.09 0.02 0.00 0.00 0.00 0.00 0.00 0.00 0.00 0.00 0.00 0.00 0.00 0.00 0.00 0.00 0.00 0.00 0.00 0.00 0.00 0.00 0.00 0.02 0.02 0.01 0.02 0.01 0.00 0.00 0.00 0.01
0.07 0.23 0.16 0.13 0.06 0.05 0.06 0.06 0.04 0.03 0.02 0.03 0.06 0.06 0.03 0.02 0.00 0.00 0.00 0.00 0.00 0.00 0.00 0.00 0.00 0.00 0.00 0.00 0.00 0.00 0.00 0.00 0.00 0.00 0.00 0.02 0.02 0.03 0.03 0.03 0.02 0.01 0.01 0.01
0.04 0.19 0.28 0.29 0.10 0.10 0.12 0.04 0.02 0.02 0.03 0.05 0.10 0.15 0.10 0.07 0.02 0.00 0.00 0.00 0.00 0.00 0.00 0.00 0.00 0.00 0.00 0.00 0.00 0.00 0.00 0.00 0.00 0.00 0.01 0.02 0.02 0.03 0.05 0.04 0.03 0.04 0.04 0.04
0.00 0.02 0.20 0.36 0.21 0.29 0.10 0.00 0.01 0.04 0.03 0.10 0.25 0.37 0.25 0.11 0.02 0.00 0.00 0.00 0.00 0.01 0.01 0.00 0.00 0.00 0.00 0.00 0.00 0.00 0.00 0.00 0.00 0.00 0.00 0.00 0.01 0.01 0.03 0.04 0.04 0.06 0.09 0.13
0.01 0.07 0.22 0.33 0.29 0.22 0.06 0.01 0.04 0.10 0.12 0.17 0.27 0.16 0.06 0.04 0.02 0.00 0.00 0.00 0.00 0.00 0.00 0.00 0.00 0.00 0.00 0.00 0.00 0.00 0.00 0.00 0.00 0.00 0.00 0.01 0.01 0.01 0.02 0.06 0.08 0.10 0.14 0.14
0.02 0.05 0.18 0.20 0.45 0.38 0.11 0.02 0.03 0.14 0.20 0.18 0.17 0.17 0.13 0.10 0.10 0.01 0.00 0.00 0.00 0.00 0.00 0.01 0.00 0.00 0.00 0.00 0.00 0.00 0.00 0.00 0.01 0.01 0.01 0.02 0.03 0.04 0.07 0.08 0.10 0.11 0.12 0.12
0.01 0.07 0.12 0.11 0.32 0.22 0.10 0.06 0.08 0.25 0.34 0.16 0.18 0.20 0.18 0.19 0.15 0.04 0.00 0.00 0.00 0.00 0.00 0.00 0.00 0.00 0.00 0.00 0.00 0.01 0.01 0.01 0.01 0.02 0.04 0.05 0.05 0.08 0.09 0.08 0.07 0.12 0.14 0.13
0.09 0.13 0.05 0.08 0.19 0.07 0.08 0.16 0.21 0.36 0.36 0.22 0.18 0.13 0.16 0.16 0.13 0.06 0.02 0.00 0.00 0.00 0.00 0.00 0.00 0.00 0.00 0.00 0.01 0.02 0.02 0.01 0.03 0.05 0.05 0.05 0.05 0.06 0.08 0.10 0.06 0.06 0.14 0.18
0.00 0.03 0.06 0.15 0.13 0.01 0.01 0.05 0.13 0.25 0.25 0.15 0.16 0.17 0.17 0.13 0.13 0.12 0.07 0.03 0.01 0.00 0.00 0.01 0.01 0.00 0.00 0.01 0.01 0.05 0.04 0.04 0.05 0.06 0.05 0.05 0.04 0.04 0.04 0.06 0.14 0.14 0.13 0.20
0.00 0.01 0.06 0.14 0.02 0.00 0.00 0.00 0.04 0.08 0.13 0.10 0.10 0.16 0.30 0.21 0.11 0.13 0.10 0.05 0.04 0.02 0.01 0.04 0.04 0.03 0.02 0.02 0.02 0.04 0.05 0.07 0.09 0.07 0.06 0.05 0.04 0.08 0.03 0.06 0.15 0.23 0.18 0.34
0.01 0.01 0.03 0.09 0.01 0.05 0.01 0.03 0.03 0.01 0.00 0.01 0.07 0.21 0.36 0.30 0.16 0.11 0.13 0.09 0.06 0.05 0.05 0.08 0.11 0.14 0.10 0.05 0.06 0.04 0.08 0.11 0.11 0.07 0.07 0.06 0.03 0.05 0.03 0.05 0.36 0.54 0.30 0.68
0.00 0.01 0.12 0.19 0.03 0.16 0.06 0.00 0.00 0.00 0.01 0.01 0.04 0.10 0.18 0.22 0.18 0.14 0.19 0.14 0.08 0.09 0.13 0.16 0.19 0.24 0.21 0.16 0.10 0.08 0.09 0.09 0.13 0.11 0.09 0.16 0.11 0.07 0.10 0.15 0.17 0.44 0.64 0.64

GFSCGP_prec_precacc_072.txt.gz
Total_Precipitation_Accumulation
0.00 0.00 0.02 0.04 0.02 0.02 0.02 0.02 0.02 0.02 0.00 0.00 0.00 0.00 0.00 0.00 0.00 0.00 0.00 0.00 0.00 0.00 0.00 0.00 0.00 0.00 0.00 0.00 0.00 0.00 0.00 0.00 0.00 0.00 0.00 0.00 0.00 0.00 0.00 0.00 0.00 0.00 0.00 0.00
0.01 0.00 0.01 0.01 0.00 0.01 0.01 0.01 0.02 0.03 0.00 0.00 0.00 0.00 0.00 0.00 0.00 0.00 0.00 0.00 0.00 0.00 0.00 0.00 0.00 0.00 0.00 0.00 0.00 0.00 0.00 0.00 0.00 0.00 0.00 0.00 0.00 0.00 0.00 0.00 0.00 0.00 0.00 0.00
0.01 0.02 0.01 0.01 0.02 0.01 0.01 0.01 0.01 0.00 0.00 0.00 0.00 0.00 0.00 0.00 0.00 0.00 0.00 0.00 0.00 0.00 0.00 0.00 0.00 0.00 0.00 0.00 0.00 0.00 0.00 0.00 0.00 0.00 0.00 0.00 0.00 0.00 0.00 0.00 0.00 0.00 0.00 0.00
0.01 0.02 0.01 0.01 0.01 0.03 0.01 0.00 0.01 0.00 0.00 0.00 0.00 0.00 0.00 0.00 0.00 0.00 0.00 0.00 0.00 0.00 0.00 0.00 0.00 0.00 0.00 0.00 0.00 0.00 0.00 0.00 0.00 0.00 0.00 0.00 0.00 0.00 0.00 0.00 0.00 0.00 0.00 0.00
0.02 0.01 0.01 0.02 0.01 0.01 0.01 0.00 0.00 0.00 0.00 0.00 0.00 0.00 0.00 0.00 0.00 0.00 0.00 0.00 0.00 0.00 0.00 0.00 0.00 0.00 0.00 0.00 0.00 0.00 0.00 0.00 0.00 0.00 0.00 0.00 0.00 0.00 0.00 0.00 0.00 0.00 0.00 0.00
0.00 0.00 0.00 0.00 0.00 0.00 0.00 0.00 0.00 0.00 0.00 0.00 0.00 0.00 0.00 0.00 0.00 0.00 0.00 0.00 0.00 0.00 0.00 0.00 0.00 0.00 0.00 0.00 0.00 0.00 0.00 0.00 0.00 0.00 0.00 0.00 0.00 0.00 0.00 0.00 0.00 0.00 0.00 0.00
0.00 0.00 0.00 0.00 0.00 0.00 0.00 0.00 0.00 0.00 0.00 0.00 0.00 0.00 0.00 0.00 0.00 0.00 0.00 0.00 0.00 0.00 0.00 0.00 0.00 0.00 0.00 0.00 0.00 0.00 0.00 0.00 0.00 0.00 0.00 0.00 0.00 0.00 0.00 0.00 0.00 0.00 0.00 0.00
0.01 0.00 0.00 0.00 0.00 0.00 0.00 0.00 0.00 0.00 0.00 0.00 0.00 0.00 0.00 0.00 0.00 0.00 0.00 0.00 0.00 0.00 0.00 0.00 0.00 0.00 0.00 0.00 0.00 0.00 0.00 0.00 0.00 0.00 0.00 0.00 0.00 0.00 0.00 0.00 0.00 0.00 0.00 0.00
0.01 0.00 0.00 0.00 0.00 0.00 0.00 0.00 0.00 0.00 0.00 0.00 0.00 0.00 0.00 0.00 0.00 0.00 0.00 0.00 0.00 0.00 0.00 0.00 0.00 0.00 0.00 0.00 0.00 0.00 0.00 0.00 0.00 0.00 0.00 0.00 0.00 0.00 0.00 0.00 0.00 0.00 0.00 0.00
0.00 0.00 0.00 0.00 0.00 0.00 0.00 0.00 0.00 0.00 0.00 0.00 0.00 0.00 0.00 0.00 0.00 0.00 0.00 0.00 0.00 0.00 0.00 0.00 0.00 0.00 0.00 0.00 0.00 0.00 0.00 0.00 0.00 0.00 0.00 0.00 0.00 0.00 0.00 0.00 0.00 0.00 0.00 0.00
0.00 0.00 0.00 0.00 0.00 0.00 0.00 0.00 0.00 0.00 0.00 0.05 0.07 0.01 0.00 0.00 0.00 0.00 0.00 0.00 0.00 0.00 0.00 0.00 0.00 0.00 0.00 0.00 0.00 0.00 0.00 0.00 0.00 0.00 0.00 0.00 0.00 0.00 0.00 0.00 0.00 0.00 0.00 0.00
0.01 0.02 0.01 0.00 0.00 0.00 0.00 0.01 0.02 0.12 0.14 0.08 0.16 0.14 0.00 0.00 0.00 0.00 0.00 0.00 0.00 0.00 0.00 0.00 0.00 0.00 0.00 0.00 0.00 0.00 0.00 0.00 0.00 0.00 0.00 0.00 0.00 0.00 0.00 0.00 0.00 0.00 0.00 0.00
0.08 0.08 0.08 0.02 0.00 0.00 0.00 0.00 0.03 0.17 0.33 0.24 0.16 0.08 0.00 0.00 0.00 0.00 0.00 0.00 0.00 0.00 0.00 0.00 0.00 0.00 0.00 0.00 0.00 0.00 0.00 0.00 0.00 0.00 0.00 0.00 0.00 0.00 0.00 0.00 0.00 0.00 0.00 0.00
0.08 0.12 0.15 0.21 0.16 0.11 0.07 0.02 0.01 0.09 0.27 0.15 0.09 0.04 0.00 0.00 0.00 0.00 0.00 0.00 0.00 0.00 0.00 0.00 0.00 0.00 0.00 0.00 0.00 0.00 0.00 0.00 0.00 0.00 0.00 0.00 0.01 0.00 0.00 0.00 0.00 0.00 0.00 0.00
0.05 0.12 0.09 0.10 0.05 0.03 0.04 0.04 0.02 0.04 0.09 0.13 0.09 0.02 0.00 0.00 0.00 0.00 0.00 0.00 0.00 0.00 0.00 0.00 0.00 0.00 0.00 0.00 0.00 0.00 0.00 0.00 0.00 0.00 0.00 0.02 0.02 0.01 0.02 0.01 0.00 0.00 0.00 0.01
0.07 0.23 0.16 0.13 0.06 0.05 0.06 0.06 0.04 0.03 0.02 0.03 0.06 0.06 0.03 0.02 0.00 0.00 0.00 0.00 0.00 0.00 0.00 0.00 0.00 0.00 0.00 0.00 0.00 0.00 0.00 0.00 0.00 0.00 0.00 0.02 0.02 0.03 0.03 0.03 0.02 0.01 0.01 0.01
0.04 0.19 0.28 0.29 0.10 0.10 0.12 0.04 0.02 0.02 0.03 0.05 0.10 0.15 0.10 0.07 0.02 0.00 0.00 0.00 0.00 0.00 0.00 0.00 0.00 0.00 0.00 0.00 0.00 0.00 0.00 0.00 0.00 0.00 0.01 0.02 0.02 0.03 0.05 0.04 0.03 0.04 0.04 0.04
0.00 0.02 0.20 0.36 0.21 0.29 0.10 0.00 0.01 0.04 0.03 0.10 0.25 0.37 0.25 0.11 0.02 0.00 0.00 0.00 0.00 0.01 0.01 0.00 0.00 0.00 0.00 0.00 0.00 0.00 0.00 0.00 0.00 0.00 0.00 0.00 0.01 0.01 0.03 0.04 0.04 0.06 0.09 0.13
0.01 0.07 0.22 0.33 0.29 0.22 0.06 0.01 0.04 0.10 0.12 0.17 0.27 0.16 0.06 0.04 0.02 0.00 0.00 0.00 0.00 0.00 0.00 0.00 0.00 0.00 0.00 0.00 0.00 0.00 0.00 0.00 0.00 0.00 0.00 0.01 0.01 0.01 0.02 0.06 0.08 0.10 0.14 0.14
0.02 0.05 0.18 0.20 0.45 0.38 0.11 0.02 0.03 0.14 0.20 0.18 0.17 0.17 0.13 0.10 0.10 0.01 0.00 0.00 0.00 0.00 0.00 0.01 0.00 0.00 0.00 0.00 0.00 0.00 0.00 0.00 0.01 0.01 0.01 0.02 0.03 0.04 0.07 0.08 0.10 0.11 0.12 0.12
0.01 0.07 0.12 0.11 0.32 0.22 0.10 0.06 0.08 0.25 0.34 0.16 0.18 0.20 0.18 0.19 0.15 0.04 0.00 0.00 0.00 0.00 0.00 0.00 0.00 0.00 0.00 0.00 0.00 0.01 0.01 0.01 0.01 0.02 0.04 0.05 0.05 0.08 0.09 0.08 0.07 0.12 0.14 0.13
0.09 0.13 0.05 0.08 0.19 0.07 0.08 0.16 0.21 0.36 0.36 0.22 0.18 0.13 0.16 0.16 0.13 0.06 0.02 0.00 0.00 0.00 0.00 0.00 0.00 0.00 0.00 0.00 0.01 0.02 0.02 0.01 0.03 0.05 0.05 0.05 0.05 0.06 0.08 0.10 0.06 0.06 0.14 0.18
0.00 0.03 0.06 0.15 0.13 0.01 0.01 0.05 0.13 0.25 0.25 0.15 0.16 0.17 0.17 0.13 0.13 0.12 0.07 0.03 0.01 0.00 0.00 0.01 0.01 0.00 0.00 0.01 0.01 0.05 0.04 0.04 0.05 0.06 0.05 0.05 0.04 0.04 0.04 0.06 0.14 0.14 0.13 0.21
0.00 0.01 0.06 0.14 0.02 0.00 0.00 0.00 0.04 0.08 0.13 0.10 0.10 0.16 0.30 0.21 0.11 0.13 0.10 0.05 0.04 0.02 0.01 0.04 0.04 0.03 0.02 0.02 0.02 0.04 0.05 0.07 0.09 0.07 0.06 0.05 0.04 0.08 0.03 0.06 0.15 0.23 0.18 0.35
0.01 0.01 0.03 0.09 0.01 0.05 0.01 0.03 0.03 0.01 0.00 0.01 0.07 0.21 0.36 0.30 0.16 0.11 0.13 0.09 0.06 0.05 0.05 0.08 0.11 0.14 0.10 0.05 0.06 0.04 0.08 0.11 0.11 0.07 0.07 0.06 0.03 0.05 0.03 0.05 0.36 0.56 0.32 0.70
0.00 0.01 0.12 0.19 0.03 0.16 0.06 0.00 0.00 0.00 0.01 0.01 0.04 0.10 0.18 0.22 0.18 0.14 0.19 0.14 0.08 0.09 0.13 0.16 0.19 0.24 0.21 0.16 0.10 0.08 0.09 0.09 0.13 0.11 0.09 0.16 0.11 0.07 0.10 0.15 0.17 0.45 0.66 0.66

GFSCGP_prec_precacc_075.txt.gz
Total_Precipitation_Accumulation
0.00 0.00 0.02 0.04 0.02 0.02 0.02 0.03 0.03 0.04 0.01 0.04 0.04 0.01 0.01 0.00 0.00 0.00 0.00 0.00 0.00 0.00 0.00 0.00 0.00 0.00 0.00 0.00 0.00 0.00 0.00 0.00 0.00 0.00 0.00 0.00 0.00 0.00 0.00 0.00 0.00 0.00 0.00 0.00
0.01 0.00 0.01 0.01 0.00 0.01 0.01 0.02 0.05 0.04 0.01 0.01 0.01 0.00 0.00 0.00 0.00 0.00 0.00 0.00 0.00 0.00 0.00 0.00 0.00 0.00 0.00 0.00 0.00 0.00 0.00 0.00 0.00 0.00 0.00 0.00 0.00 0.00 0.00 0.00 0.00 0.00 0.00 0.00
0.02 0.02 0.01 0.02 0.02 0.01 0.01 0.02 0.04 0.02 0.00 0.00 0.00 0.00 0.00 0.00 0.00 0.00 0.00 0.00 0.00 0.00 0.00 0.00 0.00 0.00 0.00 0.00 0.00 0.00 0.00 0.00 0.00 0.00 0.00 0.00 0.00 0.00 0.00 0.00 0.00 0.00 0.00 0.00
0.04 0.04 0.01 0.02 0.03 0.04 0.03 0.01 0.02 0.00 0.00 0.00 0.00 0.00 0.00 0.00 0.00 0.00 0.00 0.00 0.00 0.00 0.00 0.00 0.00 0.00 0.00 0.00 0.00 0.00 0.00 0.00 0.00 0.00 0.00 0.00 0.00 0.00 0.00 0.00 0.00 0.00 0.00 0.00
0.08 0.03 0.02 0.04 0.05 0.04 0.04 0.01 0.01 0.00 0.00 0.00 0.00 0.00 0.00 0.00 0.00 0.00 0.00 0.00 0.00 0.00 0.00 0.00 0.00 0.00 0.00 0.00 0.00 0.00 0.00 0.00 0.00 0.00 0.00 0.00 0.00 0.00 0.00 0.00 0.00 0.00 0.00 0.00
0.05 0.02 0.03 0.02 0.03 0.02 0.01 0.01 0.02 0.00 0.00 0.00 0.00 0.00 0.00 0.00 0.00 0.00 0.00 0.00 0.00 0.00 0.00 0.00 0.00 0.00 0.00 0.00 0.00 0.00 0.00 0.00 0.00 0.00 0.00 0.00 0.00 0.00 0.00 0.00 0.00 0.00 0.00 0.00
0.00 0.00 0.00 0.03 0.02 0.01 0.01 0.01 0.00 0.00 0.00 0.00 0.00 0.00 0.00 0.00 0.00 0.00 0.00 0.00 0.00 0.00 0.00 0.00 0.00 0.00 0.00 0.00 0.00 0.00 0.00 0.00 0.00 0.00 0.00 0.00 0.00 0.00 0.00 0.00 0.00 0.00 0.00 0.00
0.02 0.00 0.00 0.01 0.01 0.00 0.00 0.00 0.00 0.00 0.00 0.00 0.00 0.00 0.00 0.00 0.00 0.00 0.00 0.00 0.00 0.00 0.00 0.00 0.00 0.00 0.00 0.00 0.00 0.00 0.00 0.00 0.00 0.00 0.00 0.00 0.00 0.00 0.00 0.00 0.00 0.00 0.00 0.00
0.03 0.00 0.00 0.00 0.00 0.00 0.00 0.00 0.00 0.00 0.00 0.00 0.00 0.00 0.00 0.00 0.00 0.00 0.00 0.00 0.00 0.00 0.00 0.00 0.00 0.00 0.00 0.00 0.00 0.00 0.00 0.00 0.00 0.00 0.00 0.00 0.00 0.00 0.00 0.00 0.00 0.00 0.00 0.00
0.00 0.00 0.00 0.00 0.00 0.00 0.00 0.00 0.00 0.00 0.00 0.00 0.00 0.00 0.00 0.00 0.00 0.00 0.00 0.00 0.00 0.00 0.00 0.00 0.00 0.00 0.00 0.00 0.00 0.00 0.00 0.00 0.00 0.00 0.00 0.00 0.00 0.00 0.00 0.00 0.00 0.00 0.00 0.00
0.00 0.00 0.00 0.00 0.00 0.00 0.00 0.00 0.00 0.00 0.00 0.05 0.07 0.01 0.00 0.00 0.00 0.00 0.00 0.00 0.00 0.00 0.00 0.00 0.00 0.00 0.00 0.00 0.00 0.00 0.00 0.00 0.00 0.00 0.00 0.00 0.00 0.00 0.00 0.00 0.00 0.00 0.00 0.00
0.02 0.02 0.01 0.00 0.00 0.00 0.00 0.01 0.02 0.12 0.14 0.08 0.16 0.14 0.00 0.00 0.00 0.00 0.00 0.00 0.00 0.00 0.00 0.00 0.00 0.00 0.00 0.00 0.00 0.00 0.00 0.00 0.00 0.00 0.00 0.00 0.00 0.00 0.00 0.00 0.00 0.00 0.00 0.00
0.08 0.08 0.08 0.02 0.00 0.00 0.00 0.00 0.03 0.17 0.33 0.24 0.16 0.08 0.00 0.00 0.00 0.00 0.00 0.00 0.00 0.00 0.00 0.00 0.00 0.00 0.00 0.00 0.00 0.00 0.00 0.00 0.00 0.00 0.00 0.00 0.00 0.00 0.00 0.00 0.00 0.00 0.00 0.00
0.08 0.12 0.15 0.21 0.16 0.11 0.07 0.02 0.01 0.09 0.27 0.15 0.09 0.04 0.00 0.00 0.00 0.00 0.00 0.00 0.00 0.00 0.00 0.00 0.00 0.00 0.00 0.00 0.00 0.00 0.00 0.00 0.00 0.00 0.00 0.00 0.01 0.00 0.00 0.00 0.00 0.00 0.00 0.00
0.05 0.12 0.09 0.10 0.05 0.03 0.04 0.04 0.02 0.04 0.09 0.13 0.09 0.02 0.00 0.00 0.00 0.00 0.00 0.00 0.00 0.00 0.00 0.00 0.00 0.00 0.00 0.00 0.00 0.00 0.00 0.00 0.00 0.00 0.00 0.02 0.02 0.01 0.02 0.01 0.00 0.00 0.00 0.01
0.07 0.23 0.16 0.13 0.06 0.05 0.06 0.06 0.04 0.03 0.02 0.03 0.06 0.06 0.03 0.02 0.00 0.00 0.00 0.00 0.00 0.00 0.00 0.00 0.00 0.00 0.00 0.00 0.00 0.00 0.00 0.00 0.00 0.00 0.00 0.02 0.02 0.03 0.03 0.03 0.02 0.01 0.01 0.01
0.04 0.19 0.28 0.29 0.10 0.10 0.12 0.04 0.02 0.02 0.03 0.05 0.10 0.15 0.10 0.07 0.02 0.00 0.00 0.00 0.00 0.00 0.00 0.00 0.00 0.00 0.00 0.00 0.00 0.00 0.00 0.00 0.00 0.00 0.01 0.02 0.02 0.03 0.05 0.04 0.03 0.04 0.04 0.04
0.00 0.02 0.20 0.36 0.21 0.29 0.10 0.00 0.01 0.04 0.03 0.10 0.25 0.37 0.25 0.11 0.02 0.00 0.00 0.00 0.00 0.01 0.01 0.00 0.00 0.00 0.00 0.00 0.00 0.00 0.00 0.00 0.00 0.00 0.00 0.00 0.01 0.01 0.03 0.04 0.04 0.06 0.09 0.13
0.01 0.07 0.22 0.33 0.29 0.22 0.06 0.01 0.04 0.10 0.12 0.17 0.27 0.16 0.06 0.04 0.02 0.00 0.00 0.00 0.00 0.00 0.00 0.00 0.00 0.00 0.00 0.00 0.00 0.00 0.00 0.00 0.00 0.00 0.00 0.01 0.01 0.01 0.02 0.06 0.08 0.10 0.14 0.14
0.02 0.05 0.18 0.20 0.45 0.38 0.11 0.02 0.03 0.14 0.20 0.18 0.17 0.17 0.13 0.10 0.10 0.01 0.00 0.00 0.00 0.00 0.00 0.01 0.00 0.00 0.00 0.00 0.00 0.00 0.00 0.00 0.01 0.01 0.01 0.02 0.03 0.04 0.07 0.08 0.10 0.11 0.12 0.12
0.01 0.07 0.12 0.11 0.32 0.22 0.10 0.06 0.08 0.25 0.34 0.16 0.18 0.20 0.18 0.19 0.15 0.04 0.00 0.00 0.00 0.00 0.00 0.00 0.00 0.00 0.00 0.00 0.00 0.01 0.01 0.01 0.01 0.02 0.04 0.05 0.05 0.08 0.09 0.08 0.07 0.12 0.14 0.13
0.09 0.13 0.05 0.08 0.19 0.07 0.08 0.16 0.21 0.36 0.36 0.22 0.18 0.13 0.16 0.16 0.13 0.06 0.02 0.00 0.00 0.00 0.00 0.00 0.00 0.00 0.00 0.00 0.01 0.02 0.02 0.01 0.03 0.05 0.05 0.05 0.05 0.06 0.08 0.10 0.06 0.06 0.14 0.18
0.00 0.03 0.06 0.15 0.13 0.01 0.01 0.05 0.13 0.25 0.25 0.15 0.16 0.17 0.17 0.13 0.13 0.12 0.07 0.03 0.01 0.00 0.00 0.01 0.01 0.00 0.00 0.01 0.01 0.05 0.04 0.04 0.05 0.06 0.05 0.05 0.04 0.04 0.04 0.06 0.14 0.14 0.13 0.21
0.00 0.01 0.06 0.14 0.02 0.00 0.00 0.00 0.04 0.08 0.13 0.10 0.10 0.16 0.30 0.21 0.11 0.13 0.10 0.05 0.04 0.02 0.01 0.04 0.04 0.03 0.02 0.02 0.02 0.04 0.05 0.07 0.09 0.07 0.06 0.05 0.04 0.08 0.03 0.06 0.15 0.23 0.19 0.36
0.01 0.01 0.03 0.09 0.01 0.05 0.01 0.03 0.03 0.01 0.00 0.01 0.07 0.21 0.36 0.30 0.16 0.11 0.13 0.09 0.06 0.05 0.05 0.08 0.11 0.14 0.10 0.05 0.06 0.04 0.08 0.11 0.11 0.07 0.07 0.06 0.03 0.05 0.03 0.05 0.36 0.56 0.34 0.73
0.00 0.01 0.12 0.19 0.03 0.16 0.06 0.00 0.00 0.00 0.01 0.01 0.04 0.10 0.18 0.22 0.18 0.14 0.19 0.14 0.08 0.09 0.13 0.16 0.19 0.24 0.21 0.16 0.10 0.08 0.09 0.09 0.13 0.11 0.09 0.16 0.11 0.07 0.10 0.15 0.17 0.45 0.68 0.68

GFSCGP_prec_precacc_078.txt.gz
Total_Precipitation_Accumulation
0.00 0.00 0.02 0.04 0.02 0.02 0.02 0.03 0.03 0.04 0.01 0.04 0.04 0.02 0.02 0.01 0.01 0.00 0.00 0.00 0.00 0.00 0.00 0.00 0.00 0.00 0.00 0.00 0.00 0.00 0.00 0.00 0.00 0.00 0.00 0.00 0.00 0.00 0.00 0.00 0.00 0.00 0.00 0.00
0.01 0.00 0.01 0.01 0.02 0.01 0.02 0.02 0.05 0.04 0.01 0.01 0.02 0.03 0.01 0.00 0.00 0.00 0.00 0.00 0.00 0.00 0.00 0.00 0.00 0.00 0.00 0.00 0.00 0.00 0.00 0.00 0.00 0.00 0.00 0.00 0.00 0.00 0.00 0.00 0.00 0.00 0.00 0.00
0.02 0.02 0.01 0.03 0.04 0.02 0.01 0.02 0.04 0.02 0.02 0.01 0.00 0.00 0.00 0.00 0.00 0.00 0.00 0.00 0.00 0.00 0.00 0.00 0.00 0.00 0.00 0.00 0.00 0.00 0.00 0.00 0.00 0.00 0.00 0.00 0.00 0.00 0.00 0.00 0.00 0.00 0.00 0.00
0.05 0.05 0.02 0.04 0.04 0.05 0.03 0.02 0.03 0.02 0.02 0.01 0.00 0.00 0.00 0.00 0.00 0.00 0.00 0.00 0.00 0.00 0.00 0.00 0.00 0.00 0.00 0.00 0.00 0.00 0.00 0.00 0.00 0.00 0.00 0.00 0.00 0.00 0.00 0.00 0.00 0.00 0.00 0.00
0.10 0.05 0.05 0.05 0.06 0.06 0.05 0.02 0.03 0.03 0.02 0.01 0.00 0.00 0.00 0.00 0.00 0.00 0.00 0.00 0.00 0.00 0.00 0.00 0.00 0.00 0.00 0.00 0.00 0.00 0.00 0.00 0.00 0.00 0.00 0.00 0.00 0.00 0.00 0.00 0.00 0.00 0.00 0.00
0.08 0.08 0.06 0.02 0.05 0.06 0.08 0.02 0.05 0.03 0.01 0.00 0.00 0.00 0.00 0.00 0.00 0.00 0.00 0.00 0.00 0.00 0.00 0.00 0.00 0.00 0.00 0.00 0.00 0.00 0.00 0.00 0.00 0.00 0.00 0.00 0.00 0.00 0.00 0.00 0.00 0.00 0.00 0.00
0.04 0.03 0.05 0.06 0.04 0.04 0.04 0.05 0.03 0.01 0.00 0.00 0.00 0.00 0.00 0.00 0.00 0.00 0.00 0.00 0.00 0.00 0.00 0.00 0.00 0.00 0.00 0.00 0.00 0.00 0.00 0.00 0.00 0.00 0.00 0.00 0.00 0.00 0.00 0.00 0.00 0.00 0.00 0.00
0.04 0.03 0.01 0.03 0.02 0.02 0.04 0.04 0.00 0.00 0.00 0.00 0.00 0.00 0.00 0.00 0.00 0.00 0.00 0.00 0.00 0.00 0.00 0.00 0.00 0.00 0.00 0.00 0.00 0.00 0.00 0.00 0.00 0.00 0.00 0.00 0.00 0.00 0.00 0.00 0.00 0.00 0.00 0.00
0.04 0.00 0.00 0.01 0.02 0.01 0.01 0.01 0.00 0.00 0.00 0.00 0.00 0.00 0.00 0.00 0.00 0.00 0.00 0.00 0.00 0.00 0.00 0.00 0.00 0.00 0.00 0.00 0.00 0.00 0.00 0.00 0.00 0.00 0.00 0.00 0.00 0.00 0.00 0.00 0.00 0.00 0.00 0.00
0.00 0.00 0.00 0.00 0.00 0.01 0.00 0.01 0.00 0.00 0.00 0.00 0.00 0.00 0.00 0.00 0.00 0.00 0.00 0.00 0.00 0.00 0.00 0.00 0.00 0.00 0.00 0.00 0.00 0.00 0.00 0.00 0.00 0.00 0.00 0.00 0.00 0.00 0.00 0.00 0.00 0.00 0.00 0.00
0.00 0.01 0.00 0.00 0.00 0.00 0.00 0.00 0.00 0.00 0.00 0.05 0.07 0.01 0.00 0.00 0.00 0.00 0.00 0.00 0.00 0.00 0.00 0.00 0.00 0.00 0.00 0.00 0.00 0.00 0.00 0.00 0.00 0.00 0.00 0.00 0.00 0.00 0.00 0.00 0.00 0.00 0.00 0.00
0.02 0.02 0.01 0.00 0.00 0.00 0.00 0.01 0.02 0.12 0.14 0.08 0.16 0.14 0.00 0.00 0.00 0.00 0.00 0.00 0.00 0.00 0.00 0.00 0.00 0.00 0.00 0.00 0.00 0.00 0.00 0.00 0.00 0.00 0.00 0.00 0.00 0.00 0.00 0.00 0.00 0.00 0.00 0.00
0.08 0.08 0.08 0.02 0.00 0.00 0.00 0.00 0.03 0.17 0.33 0.24 0.16 0.08 0.00 0.00 0.00 0.00 0.00 0.00 0.00 0.00 0.00 0.00 0.00 0.00 0.00 0.00 0.00 0.00 0.00 0.00 0.00 0.00 0.00 0.00 0.00 0.00 0.00 0.00 0.00 0.00 0.00 0.00
0.08 0.12 0.15 0.21 0.16 0.11 0.07 0.02 0.01 0.09 0.27 0.15 0.09 0.04 0.00 0.00 0.00 0.00 0.00 0.00 0.00 0.00 0.00 0.00 0.00 0.00 0.00 0.00 0.00 0.00 0.00 0.00 0.00 0.00 0.00 0.00 0.01 0.00 0.00 0.00 0.00 0.00 0.00 0.00
0.05 0.12 0.09 0.10 0.05 0.03 0.04 0.04 0.02 0.04 0.09 0.13 0.09 0.02 0.00 0.00 0.00 0.00 0.00 0.00 0.00 0.00 0.00 0.00 0.00 0.00 0.00 0.00 0.00 0.00 0.00 0.00 0.00 0.00 0.00 0.02 0.02 0.01 0.02 0.01 0.00 0.00 0.00 0.01
0.07 0.23 0.16 0.13 0.06 0.05 0.06 0.06 0.04 0.03 0.02 0.03 0.06 0.06 0.03 0.02 0.00 0.00 0.00 0.00 0.00 0.00 0.00 0.00 0.00 0.00 0.00 0.00 0.00 0.00 0.00 0.00 0.00 0.00 0.00 0.02 0.02 0.03 0.03 0.03 0.02 0.01 0.01 0.01
0.04 0.19 0.28 0.29 0.10 0.10 0.12 0.04 0.02 0.02 0.03 0.05 0.10 0.15 0.10 0.07 0.02 0.00 0.00 0.00 0.00 0.00 0.00 0.00 0.00 0.00 0.00 0.00 0.00 0.00 0.00 0.00 0.00 0.00 0.01 0.02 0.02 0.03 0.05 0.04 0.03 0.04 0.04 0.04
0.00 0.02 0.20 0.36 0.21 0.29 0.10 0.00 0.01 0.04 0.03 0.10 0.25 0.37 0.25 0.11 0.02 0.00 0.00 0.00 0.00 0.01 0.01 0.00 0.00 0.00 0.00 0.00 0.00 0.00 0.00 0.00 0.00 0.00 0.00 0.00 0.01 0.01 0.03 0.04 0.04 0.06 0.09 0.13
0.01 0.07 0.22 0.33 0.29 0.22 0.06 0.01 0.04 0.10 0.12 0.17 0.27 0.16 0.06 0.04 0.02 0.00 0.00 0.00 0.00 0.00 0.00 0.00 0.00 0.00 0.00 0.00 0.00 0.00 0.00 0.00 0.00 0.00 0.00 0.01 0.01 0.01 0.02 0.06 0.08 0.10 0.14 0.14
0.02 0.05 0.18 0.20 0.45 0.38 0.11 0.02 0.03 0.14 0.20 0.18 0.17 0.17 0.13 0.10 0.10 0.01 0.00 0.00 0.00 0.00 0.00 0.01 0.00 0.00 0.00 0.00 0.00 0.00 0.00 0.00 0.01 0.01 0.01 0.02 0.03 0.04 0.07 0.08 0.10 0.11 0.12 0.12
0.01 0.07 0.12 0.11 0.32 0.22 0.10 0.06 0.08 0.25 0.34 0.16 0.18 0.20 0.18 0.19 0.15 0.04 0.00 0.00 0.00 0.00 0.00 0.00 0.00 0.00 0.00 0.00 0.00 0.01 0.01 0.01 0.01 0.02 0.04 0.05 0.05 0.08 0.09 0.08 0.07 0.12 0.14 0.13
0.09 0.13 0.05 0.08 0.19 0.07 0.08 0.16 0.21 0.36 0.36 0.22 0.18 0.13 0.16 0.16 0.13 0.06 0.02 0.00 0.00 0.00 0.00 0.00 0.00 0.00 0.00 0.00 0.01 0.02 0.02 0.01 0.03 0.05 0.05 0.05 0.05 0.06 0.08 0.10 0.06 0.06 0.14 0.18
0.00 0.03 0.06 0.15 0.13 0.01 0.01 0.05 0.13 0.25 0.25 0.15 0.16 0.17 0.17 0.13 0.13 0.12 0.07 0.03 0.01 0.00 0.00 0.01 0.01 0.00 0.00 0.01 0.01 0.05 0.04 0.04 0.05 0.06 0.05 0.05 0.04 0.04 0.04 0.06 0.14 0.14 0.13 0.21
0.00 0.01 0.06 0.14 0.02 0.00 0.00 0.00 0.04 0.08 0.13 0.10 0.10 0.16 0.30 0.21 0.11 0.13 0.10 0.05 0.04 0.02 0.01 0.04 0.04 0.03 0.02 0.02 0.02 0.04 0.05 0.07 0.09 0.07 0.06 0.05 0.04 0.08 0.03 0.06 0.15 0.23 0.19 0.36
0.01 0.01 0.03 0.09 0.01 0.05 0.01 0.03 0.03 0.01 0.00 0.01 0.07 0.21 0.36 0.30 0.16 0.11 0.13 0.09 0.06 0.05 0.05 0.08 0.11 0.14 0.10 0.05 0.06 0.04 0.08 0.11 0.11 0.07 0.07 0.06 0.03 0.05 0.03 0.05 0.36 0.56 0.34 0.75
0.00 0.01 0.12 0.19 0.03 0.16 0.06 0.00 0.00 0.00 0.01 0.01 0.04 0.10 0.18 0.22 0.18 0.14 0.19 0.14 0.08 0.09 0.13 0.16 0.19 0.24 0.21 0.16 0.10 0.08 0.09 0.09 0.13 0.11 0.09 0.16 0.11 0.07 0.10 0.15 0.17 0.45 0.68 0.70